Tracking 31027 objects as of 19-Jul-2025
HD Live streaming from Space Station
objects crossing your sky now

ONEWEB-0139

Track ONEWEB-0139 now!
10-day predictions
ONEWEB-0139 is classified as:


NORAD ID: 47285
Int'l Code: 2020-100AD
Perigee: 1,219.5 km
Apogee: 1,222.2 km
Inclination: 87.9 °
Period: 109.7 minutes
Semi major axis: 7591 km
RCS: Unknown
Launch date: December 18, 2020
Source: United Kingdom (UK)
Launch site: VOSTOCHNY COSMODROME (VOSTO)
Your satellite tracking list
IRIDIUM 135
Track 1 satellite(s)




NASA's NSSDC Master Catalog

Two Line Element Set (TLE):
1 47285U 20100AD  25199.85846076 -.00000336  00000-0 -96897-3 0  9995
2 47285  87.8858  56.9295 0001788  83.1638 276.9694 13.12441082221005
Source of the keplerian elements: AFSPC